Highland Park, NJ

12:25 AM EDT on October 02, 2014 (GMT -0400)
Cedar Lane - Highland Park | Change Station
CLOSE
Current Station
Personal Weather Station
Location: Highland Park, NJ
Elevation: 46 ft
Nearby Weather Stations

Elev 46 ft 40.51 °N, 74.43 °W | Updated 11 minutes ago

Overcast
Overcast
63.5 °F
Feels Like 63.5 °F
N
0.0
Wind Variable Wind from SSE

Today
High -- | Low -- °F
--% Chance of Precip.
Yesterday
High -- | Low -- °F
Precip. -- in
6:55 AM 6:38 PM
First Quarter, 54% visible
Pressure 30.09 in
Visibility 10.0 miles
Clouds Mostly Cloudy 1500 ft
Overcast 2100 ft
Dew Point 58 °F
Humidity 83%
Rainfall 0.00 in
Snow Depth Not available.
UV 0 out of 12
Pollen 2.30 out of 12
Air Quality Not available.
Flu Activity Not available.
METAR KLDJ 020415Z AUTO 06007KT 10SM BKN015 OVC021 19/16 A3009 RMK AO2 T01850157

More Conditions Fewer Conditions

Pressure 30.09 in
Visibility 10.0 miles
Clouds Mostly Cloudy 1500 ft
Overcast 2100 ft
Dew Point 58 °F
Humidity 83%
Rainfall 0.00 in
Snow Depth Not available.
UV 0 out of 12
Pollen 2.30 out of 12
Air Quality Not available.
Flu Activity Not available.
METAR KLDJ 020415Z AUTO 06007KT 10SM BKN015 OVC021 19/16 A3009 RMK AO2 T01850157

More Conditions Fewer Conditions

10-Day Weather Forecast

Almanac

Astronomy

Oct. 02, 2014 Rise Set
Actual Time 6:55 AM EDT 6:38 PM EDT
Civil Twilight 6:27 AM EDT 7:05 PM EDT
Nautical Twilight 5:56 AM EDT 7:36 PM EDT
Astronomical Twilight 5:24 AM EDT 8:08 PM EDT
Moon 2:43 PM EDT 12:08 AM EDT
Length of Visible Light 12h 37m
Length of Day
11h 43m
Tomorrow will be 2m 39s shorter.
First Quarter, 54% of the Moon is Illuminated
Today
First Quarter
Oct 8
Full
Oct 15
Last Quarter
Oct 23
New
Oct 30
First Quarter

Today's Extremes

State Highs State Lows

Community

WunderPhotos

Upload Photos

1,758,186 photos uploaded!

Nearby

Snow Depth

Station Depth Elevation
No new snow has been reported.

Earthquake Activity

City Distance Mag. Time & Date
No recent earthquake activity has been reported nearby.
Minimum magnitude displayed is 2.5.

Coastal Water Temperatures

Place Temperature
Sandy Hook, NJ 68.0 °F
The Battery, NY 69.1 °F
Bergen Point West Reach, NJ 68.0 °F
Kings Point, NY 66.9 °F

Nearby Weather Stations